Ottumwa, IA

11:09 AM CDT on October 23, 2019 (GMT -0500)
Ottumwa Industrial

Weather History for KOTM - August, 2019

Change the Weather History Date:

Wednesday, August 28, 2019

  Actual Average Record
Temperature  
Mean Temperature 66 °F 71 °F  
Max Temperature 79 °F 82 °F 98 °F (1984)
Min Temperature 53 °F 60 °F 41 °F (1935)
Degree Days  
Heating Degree Days 0 1  
Month to date heating degree days 0 1  
Since 1 June heating degree days 4 24  
Since 1 July heating degree days 0 3  
Cooling Degree Days 1 7  
Month to date cooling degree days 214 236  
Year to date cooling degree days 861 815  
Since 1 June cooling degree days 798 751  
Growing Degree Days 16 (Base 50)    
Moisture  
Dew Point 54 °F    
Average Humidity 66    
Maximum Humidity 93    
Minimum Humidity 39    
Precipitation  
Precipitation 0.00 in 0.14 in 4.07 in (2018)
Month to date precipitation 3.13 4.18  
Year to date precipitation 29.65 26.27  
Sea Level Pressure  
Sea Level Pressure 30.01 in    
Wind  
Wind Speed 8 mph (West)    
Max Wind Speed 21 mph    
Max Gust Speed 32 mph    
Visibility 10 miles    
Events      
T = Trace of Precipitation, MM = Missing Value Source: NWS Daily Summary

Daily Weather History Graph

Daily Weather History Graph

Search for Another Location

Airport or City:

Astronomy

Aug. 28, 2019 Rise Set
Actual Time 6:32 AM CDT 7:49 PM CDT
Civil Twilight 6:03 AM CDT 8:17 PM CDT
Nautical Twilight 5:29 AM CDT 8:51 PM CDT
Astronomical Twilight 4:53 AM CDT 9:27 PM CDT
Moon 4:03 AM CDT (8/28) 7:02 PM CDT (8/28)
Length of Visible Light 14h 14m
Length of Day
13h 16m
Waning Crescent, 4% of the Moon is Illuminated
Aug 28
Waning Crescent
Aug 30
New
Sep 5
First Quarter
Sep 13
Full
Sep 21
Last Quarter

Hourly Weather History & Observations

Time (CDT) Temp. Dew Point Humidity Pressure Visibility Wind Dir Wind Speed Gust Speed Precip Events Conditions
12:53 AM 59.0 °F 52.0 °F 78% 29.98 in 10.0 mi West 8.1 mph - N/A   Clear
1:53 AM 57.0 °F 52.0 °F 83% 29.98 in 10.0 mi West 5.8 mph - N/A   Clear
2:53 AM 57.0 °F 52.0 °F 83% 29.99 in 10.0 mi West 6.9 mph - N/A   Clear
3:53 AM 57.9 °F 52.0 °F 81% 30.00 in 10.0 mi West 8.1 mph - N/A   Clear
4:53 AM 55.0 °F 51.1 °F 86% 30.01 in 10.0 mi WSW 6.9 mph - N/A   Clear
5:53 AM 54.0 °F 51.1 °F 90% 30.02 in 10.0 mi West 4.6 mph - N/A   Clear
6:53 AM 55.9 °F 51.1 °F 84% 30.03 in 10.0 mi West 8.1 mph - N/A   Clear
7:53 AM 60.1 °F 52.0 °F 75% 30.04 in 10.0 mi West 8.1 mph - N/A   Clear
8:53 AM 64.9 °F 54.0 °F 68% 30.05 in 10.0 mi West 6.9 mph - N/A   Clear
9:53 AM 70.0 °F 54.0 °F 57% 30.04 in 10.0 mi West 10.4 mph - N/A   Clear
10:53 AM 73.0 °F 54.0 °F 51% 30.05 in 10.0 mi WNW 11.5 mph - N/A   Clear
11:53 AM 75.0 °F 51.1 °F 43% 30.04 in 10.0 mi WNW 19.6 mph 26.5 mph N/A   Clear
12:53 PM 77.0 °F 51.1 °F 40% 30.04 in 10.0 mi West 16.1 mph - N/A   Clear
1:53 PM 77.0 °F 52.0 °F 42% 30.03 in 10.0 mi West 12.7 mph - N/A   Clear
2:53 PM 78.1 °F 52.0 °F 40% 30.02 in 10.0 mi West 13.8 mph - N/A   Clear
3:53 PM 79.0 °F 52.0 °F 39% 30.01 in 10.0 mi West 13.8 mph 20.7 mph N/A   Clear
4:53 PM 79.0 °F 53.1 °F 40% 29.99 in 10.0 mi West 11.5 mph 20.7 mph N/A   Clear
5:53 PM 78.1 °F 55.9 °F 46% 29.99 in 10.0 mi WNW 6.9 mph - N/A   Clear
6:53 PM 75.0 °F 57.9 °F 55% 29.98 in 10.0 mi West 4.6 mph - N/A   Clear
7:53 PM 66.9 °F 60.1 °F 79% 29.97 in 10.0 mi Calm Calm - N/A   Clear
8:53 PM 62.1 °F 57.9 °F 86% 29.98 in 10.0 mi SW 3.5 mph - N/A   Clear
9:53 PM 62.1 °F 57.0 °F 84% 29.99 in 10.0 mi SSW 4.6 mph - N/A   Clear
10:53 PM 60.1 °F 57.0 °F 90% 29.99 in 10.0 mi SSW 4.6 mph - N/A   Clear
11:53 PM 61.0 °F 57.0 °F 87% 29.98 in 10.0 mi South 3.5 mph - N/A   Clear